SCP
0 0 0 0 0 0 0 0 0 0 0 0 0 0 0 0 0 0 0 0 0 0 0 0 0 0 0 0 0 0 0 0 0 0 0 0 0 0 0 0 0 0 0
0 0 0 0 0 0 0 0 0 0 0 0 0 0 0 0 0 0 0 0 0 0 0 0 0 0 0 0 0 0 0 0 0 0 0 0 0 0 0 0 0 0 0
0 0 0 0 0 0 0 0 0 0 0 0 0 0 0 0 0 0 0 0 0 0 0 0 0 0 0 0 0 0 0 0 0 0 0 0 0 0 0 0 0 0 0
0 0 0 0 0 0 0 0 0 0 0 0 0 0 0 0 0 0 0 0 0 0 0 0 0 0 0 0 0 0 0 0 0 0 0 0 0 0 0 0 0 0 0
0 0 0 0 0 0 0 0 0 0 0 0 0 0 0 0 0 0 0 0 0 0 0 0 0 0 0 0 0 0 0 0 0 0 0 0 0 0 0 0 0 0 0
0 0 0 0 0 0 0 0 0 0 0 0 0 0 0 0 0 0 0 0 0 0 0 0 0 0 0 0 0 0 0 0 0 0 0 0 0 0 0 0 0 0 0
0 0 0 0 0 0 0 0 0 0 0 0 0 0 0 0 0 0 0 0 0 0 0 0 0 0 0 0 0 0 0 0 0 0 0 0 0 0 0 0 0 0 0
0 0 0 0 0 0 0 0 0 0 0 0 0 0 0 0 0 0 0 0 0 0 0 0 0 0 0 0 0 0 0 0 0 0 0 0 0 0 0 0 0 0 0
0 0 0 0 0 0 0 0 0 0 0 0 0 0 0 0 0 0 0 0 0 0 0 0 0 0 0 0 0 0 0 0 0 0 0 0 0 0 0 0 0 0 0
0 0 0 0 0 0 0 0 0 0 0 0 0 0 0 0 0 0 0 0 0 0 0 0 0 0 0 0 0 0 0 0 0 0 0 0 0 0 0 0 0 0 0
1 0 0 0 0 0 0 0 0 0 0 0 0 0 0 0 0 0 0 0 0 0 0 0 0 0 0 0 0 0 0 0 0 0 0 0 0 0 0 0 0 0 0
1 1 0 0 0 0 0 0 0 0 0 0 0 0 0 0 0 0 0 0 0 0 0 0 0 0 0 0 0 0 0 0 0 0 0 0 0 0 0 0 0 0 0
0 0 0 0 0 0 0 0 0 0 0 0 0 0 0 0 0 0 0 0 0 0 0 0 0 0 0 0 0 0 0 0 0 0 0 0 0 0 0 0 0 0 0
0 0 0 0 0 0 0 0 0 0 0 0 0 0 0 0 0 0 0 0 0 0 0 0 0 0 0 0 0 0 0 0 0 0 0 0 0 0 0 0 0 0 0
0 0 0 0 0 0 0 0 0 0 0 0 0 0 0 0 0 0 0 0 0 0 0 0 0 0 0 0 0 0 0 0 0 0 0 0 0 0 0 0 0 0 0
0 0 0 0 0 0 0 0 0 0 0 0 0 0 0 0 0 0 0 0 0 0 0 0 0 0 0 0 0 0 0 0 0 0 0 0 0 0 0 0 0 0 0
0 0 0 0 0 0 0 0 0 0 0 0 0 0 0 0 0 0 0 0 0 0 0 0 0 0 0 0 0 0 0 0 0 0 0 0 0 0 0 0 0 0 0
0 0 0 0 0 0 0 0 0 0 0 0 0 0 0 0 0 0 0 0 0 0 0 0 0 0 0 0 0 0 0 0 0 0 0 0 0 0 0 0 0 0 0
0 0 0 0 0 0 0 0 0 0 0 0 0 0 0 0 0 0 0 0 0 0 0 0 0 0 0 0 0 0 0 0 0 0 0 0 0 0 0 0 0 0 0
0 0 0 0 0 0 0 0 0 0 0 0 0 0 0 0 0 0 0 0 0 0 0 0 0 0 0 0 0 0 0 0 0 0 0 0 0 0 0 0 0 0 0
0 0 0 0 0 0 0 0 0 0 0 0 0 0 0 0 0 0 0 0 0 0 0 0 0 0 0 0 0 0 0 0 0 0 0 0 0 0 0 0 0 0 0
0 0 0 0 0 0 0 0 0 0 0 0 0 0 0 0 0 0 0 0 0 0 0 0 0 0 0 0 0 0 0 0 0 0 0 0 0 0 0 0 0 0 0
0 0 0 0 0 0 0 0 0 0 0 0 0 0 0 0 0 0 0 0 0 0 0 0 0 0 0 0 0 0 0 0 0 0 0 0 0 0 0 0 0 0 0
0 0 0 0 0 0 0 0 0 0 0 0 0 0 0 0 0 0 0 0 0 0 0 0 0 0 0 0 0 0 0 0 0 0 0 0 0 0 0 0 0 0 0
0 0 0 0 0 0 0 0 0 0 0 0 0 0 0 0 0 0 0 0 0 0 0 0 0 0 0 0 0 0 0 0 0 0 0 0 0 0 0 0 0 0 0
0 0 0 0 0 0 0 0 0 0 0 0 0 0 0 0 0 0 0 0 0 0 0 0 0 0 0 0 0 0 0 0 0 0 0 0 0 0 0 0 0 0 0
Wind_Speed
5 4 3 3 2 2 2 2 1 1 1 2 3 4 5 5 5 4 4 11 10 10 11 11 11 11 10 10 9 9 9 9 8 8 8 8 8 8 8 7 7 7 6
5 4 4 3 3 3 3 2 2 2 1 2 3 5 5 5 5 5 3 6 10 10 10 11 11 10 10 10 9 9 9 9 8 7 7 7 7 7 7 7 7 7 6
6 5 4 4 3 3 3 2 2 2 2 2 3 4 4 5 5 5 4 3 4 9 10 10 10 10 10 10 10 9 9 9 8 8 7 7 7 7 6 7 7 6 6
7 5 4 4 4 3 3 3 2 2 1 2 2 3 3 4 5 5 4 4 4 4 7 11 11 10 11 11 10 10 10 9 9 9 8 8 8 7 7 7 7 6 6
7 5 4 4 4 3 3 3 2 2 2 2 2 2 3 3 4 5 5 6 5 4 4 8 11 11 12 12 12 11 11 11 10 10 10 9 9 8 8 7 7 7 7
7 6 4 5 5 3 3 2 2 2 2 2 2 2 2 2 3 4 5 5 5 6 5 5 5 7 12 11 11 11 12 11 11 11 11 11 10 9 9 8 8 8 7
7 6 4 4 4 4 4 4 3 3 2 2 2 1 2 1 2 3 3 4 5 6 5 6 4 4 5 10 10 11 12 12 12 12 11 11 10 10 10 9 8 8 8
7 7 5 5 5 4 4 4 4 3 2 3 3 2 1 3 2 3 3 4 5 4 6 7 6 6 5 4 7 12 12 13 13 12 12 11 11 10 10 10 9 9 9
7 6 7 6 5 5 4 4 4 5 3 2 3 4 4 4 2 2 3 4 4 4 5 5 7 7 8 5 5 10 13 12 13 13 13 12 12 11 11 11 11 10 10
7 7 7 7 6 5 5 5 5 4 4 3 2 2 3 4 3 1 2 3 4 5 6 6 7 7 8 6 7 11 13 13 13 14 14 13 13 12 12 12 12 11 11
6 7 7 7 6 5 6 5 5 5 4 4 3 2 2 1 2 3 2 3 2 4 5 6 5 6 7 6 6 10 14 14 14 14 14 14 14 13 13 13 13 13 12
4 6 7 7 7 6 6 6 5 6 5 5 4 3 3 3 3 3 3 3 3 4 4 4 5 6 6 6 10 13 14 15 14 14 14 14 14 14 14 14 14 14 13
4 7 7 6 6 6 6 6 6 6 6 6 5 4 4 4 3 4 3 3 3 3 2 3 5 5 6 6 7 13 14 15 15 14 14 14 14 13 13 13 14 14 13
6 7 7 7 7 7 7 6 5 6 5 6 7 5 4 4 3 4 4 4 2 2 2 4 3 5 5 5 8 12 9 14 14 14 14 14 14 13 13 12 12 12 11
5 6 7 7 7 7 7 6 5 6 5 6 6 6 5 4 3 3 3 4 4 3 4 4 3 4 5 4 7 7 6 11 14 14 14 14 14 13 13 13 12 12 11
5 6 6 7 7 7 7 6 5 6 6 6 5 6 5 4 3 3 3 3 4 5 4 4 4 3 4 5 6 6 7 10 13 13 14 14 14 14 13 13 13 12 12
5 6 6 7 7 7 7 7 7 7 7 7 6 7 7 6 4 4 3 3 3 4 5 4 3 2 2 3 3 4 4 5 6 12 13 13 14 14 13 13 13 12 12
5 5 5 6 7 7 7 7 8 8 8 8 7 7 7 5 6 5 4 4 4 4 5 5 3 2 3 4 4 4 4 5 5 9 11 12 12 13 13 13 12 12 12
3 4 4 6 6 6 7 7 7 7 7 7 7 6 6 6 6 5 5 5 4 4 4 4 4 3 2 2 2 3 3 3 4 6 8 10 11 11 12 11 11 11 11
3 3 4 5 5 5 6 6 6 6 6 6 6 6 7 6 7 6 5 6 5 4 3 3 3 2 2 2 1 2 2 3 4 4 4 5 7 9 10 10 10 11 11
3 2 3 4 4 4 5 5 5 6 6 6 5 6 7 8 9 8 6 5 5 4 3 3 3 2 2 2 3 2 3 3 3 2 2 2 2 3 5 8 10 11 11
1 1 2 2 3 3 4 6 4 4 4 5 5 5 6 6 8 10 10 9 8 6 6 5 4 4 5 4 3 3 3 2 3 2 2 3 2 3 4 4 7 9 11
1 1 1 1 0 0 1 3 3 2 3 3 4 4 4 4 5 4 5 7 7 8 8 6 6 6 5 5 4 3 3 3 4 3 2 3 2 3 3 4 7 8 9
2 1 1 1 1 1 0 1 2 2 1 1 2 2 3 2 2 3 3 3 3 3 5 4 5 5 4 4 4 5 4 3 2 1 2 2 2 3 3 3 5 8 8
2 2 2 2 2 1 1 1 2 2 1 0 1 1 1 2 2 3 3 3 2 2 2 3 4 3 3 2 2 2 2 2 2 2 1 2 2 2 2 3 3 5 6
2 2 2 2 2 2 2 1 2 1 1 0 1 1 1 0 0 1 2 2 2 2 1 0 0 1 1 0 1 2 2 2 2 2 2 2 1 1 1 2 2 2 2
Wind_Direction
158 159 160 166 173 165 171 175 188 189 166 156 145 143 140 142 143 147 156 160 159 162 162 163 163 162 162 163 163 163 161 160 157 157 159 159 158 160 161 159 155 154 154
160 160 163 168 176 177 178 177 175 159 144 132 133 136 141 146 150 151 153 163 168 169 171 173 173 173 173 173 174 174 173 172 170 171 173 172 171 170 171 173 171 171 172
161 162 165 170 182 177 168 156 147 119 116 122 127 139 146 153 157 160 160 160 172 181 181 183 184 185 184 185 185 185 184 182 183 186 185 183 182 184 183 183 183 183 182
163 161 166 174 175 164 156 152 144 120 120 128 137 153 151 157 163 168 170 175 178 187 194 194 194 195 195 195 195 196 195 194 193 194 194 193 192 193 194 194 195 193 191
166 163 171 174 167 158 159 167 146 141 148 152 159 153 158 166 170 177 184 190 191 191 194 201 201 202 206 206 205 205 204 203 201 203 203 204 202 200 202 203 203 204 205
169 165 169 172 163 156 163 157 149 147 152 161 152 141 178 180 180 185 194 196 198 201 199 203 203 212 216 216 215 213 211 209 208 209 210 210 209 206 206 209 210 212 214
172 169 171 169 169 169 175 165 148 159 165 137 94 48 350 272 212 201 196 189 199 203 196 203 202 204 217 219 218 217 217 216 213 212 213 213 212 209 208 210 212 214 218
174 179 172 174 175 171 173 170 156 155 177 153 136 120 10 332 302 221 202 200 203 200 202 208 204 205 211 208 217 218 221 223 219 216 214 213 212 211 210 213 214 216 219
181 183 177 173 177 175 182 184 172 164 176 193 164 150 158 215 266 292 230 214 203 202 210 208 209 210 211 209 211 220 222 224 223 221 219 216 214 212 213 217 219 221 222
188 186 179 178 181 181 184 193 183 174 163 185 203 199 178 163 164 253 294 251 221 214 212 214 215 212 212 207 210 213 217 219 221 223 221 218 216 215 216 220 224 227 227
194 192 186 184 188 190 192 196 187 186 179 179 184 185 185 177 158 160 235 270 263 235 218 214 211 211 213 209 211 217 216 216 219 221 222 220 219 219 220 223 228 231 231
202 202 194 190 192 193 196 200 198 197 197 191 190 185 175 176 188 176 198 230 243 254 231 219 215 213 214 211 219 217 214 215 217 220 222 222 221 221 223 226 229 233 236
205 206 202 196 195 197 197 196 197 206 202 198 200 203 200 202 182 173 176 206 234 263 263 238 222 215 216 210 219 218 217 216 217 219 222 224 223 223 225 227 230 234 237
209 203 201 201 201 200 201 197 200 208 205 208 212 208 208 213 197 183 177 172 207 273 274 259 243 217 217 209 216 213 218 217 218 219 221 224 223 223 225 226 228 232 236
208 201 200 202 204 204 205 197 206 210 206 210 213 211 213 218 207 200 189 176 175 212 251 251 248 233 214 211 216 210 213 217 218 220 221 223 223 224 225 226 227 230 232
210 201 204 204 207 209 207 203 208 212 206 213 213 213 219 221 214 204 198 193 187 192 230 242 233 237 218 215 210 205 212 217 220 221 222 223 223 225 226 228 230 231 232
206 205 207 206 209 211 207 206 212 210 210 216 218 215 222 216 210 211 205 200 202 191 224 255 245 244 212 215 208 212 215 216 226 226 226 226 226 227 228 229 231 232 233
210 211 207 210 215 213 208 206 214 212 210 214 218 217 222 216 215 216 211 214 216 205 209 236 249 237 224 215 206 211 218 217 222 228 224 226 229 229 227 228 229 230 231
213 213 209 213 219 217 211 209 211 210 211 212 211 213 220 214 223 223 219 222 224 223 210 215 236 234 237 225 201 227 225 231 228 231 221 225 229 229 227 227 230 231 232
206 211 212 213 214 215 211 206 204 208 213 213 212 213 215 211 220 223 227 229 224 223 214 209 225 232 232 232 172 209 242 236 240 240 226 217 225 229 230 229 233 234 232
212 213 212 217 215 210 210 206 206 208 210 214 218 219 221 217 219 220 224 221 215 217 212 211 223 222 226 204 210 206 223 242 254 239 228 234 220 227 228 230 233 233 232
207 186 215 223 224 227 219 211 202 203 203 208 219 227 228 226 228 226 229 223 210 210 211 211 217 218 227 218 211 204 206 211 256 246 194 244 204 229 232 221 225 227 229
158 162 192 182 204 293 184 186 189 187 203 210 217 224 233 236 227 230 240 240 236 230 213 205 212 220 218 212 198 205 205 203 225 232 179 241 227 238 243 238 229 228 230
130 128 108 104 96 12 71 165 156 138 148 206 227 223 222 244 240 220 219 225 236 242 227 217 218 225 221 215 204 207 205 208 243 261 177 225 238 241 253 244 239 229 231
114 102 101 95 83 17 23 136 129 117 117 83 287 239 209 221 249 215 193 210 229 249 235 210 212 222 225 219 189 160 174 177 241 260 208 201 237 242 255 254 256 241 239
112 104 81 73 76 40 33 70 122 122 123 83 18 12 39 106 336 180 183 190 216 245 206 134 169 258 251 239 153 170 193 201 215 250 239 192 230 198 283 285 280 268 254